SL-16 DEB

Satellite information

Favourite Embed

Satellite Type and Status

DEBRISIN ORBIT

Key statistics

Satellite SL-16 DEB at a glance.

Uptime

12042

Days in orbit

Revolutions

≈ 14.1

Per day

Orbit

LEO

Low Earth Orbit

Inclination

71.3

Latest

Satellite identification and parameters

Extended collection of information and parameters for SL-16 DEB.

Object identification

Identified? True

Debris? True

Object name: SL-16 DEB

International designator: 1992-093EM

Object number (NORAD): 22444

Object ID (CCSDS): 22444

Country: COMMONWEALTH OF INDEPENDENT STATES (CIS)

Current information (Y/N): Y

RCS size: SMALL

Orbital parameters

Period: 102.265 minutes

Inclination: 71.3208 deg

SMA: 7243.985 km

Apoapsis: 922.714 km

Periapsis: 808.987 km

RAAN: 288.6203 deg

Eccentricy: 0.0078498

Argument of periapsis: 183.4963 deg

Mean anomaly: 354.1764 deg

Mean motion: 14.08109472 rev/day

Mean motion (dot): 0.00000247 rev/day2

B* drag term: 0.0001661616 1/REarth

Two-line elements (TLE)

Creation date: Dec. 14, 2025, 3:07 a.m.

Reference frame: TEME

Reference center: EARTH

Epoch: Dec. 13, 2025, 2:10 p.m. UTC

TLE line 0: 0 SL-16 DEB

TLE line 1: 1 22444U 92093EM 25347.59088205 .00000247 00000-0 16616-3 0 9993

TLE line 2: 2 22444 71.3208 288.6203 0078498 183.4963 354.1764 14.08109472686251

Live tracking on map

Real-time ground track for satellite SL-16 DEB.

In-orbit conjunctions

A list of the most updated potential collisions computed for object SL-16 DEB.

Target Orbit TCA Probability of collision Miss distance Type
FENGYUN 1C DEB * SSO 2024-11-13 18:50:42 0.0001247197 655.0 (m) DEBRIS

Associated space launch

Second generation ELING satellite

SL-16 DEB was lifted into orbit during the mission ‘Zenit-2 | Tselina-2 12’, on board a Zenit-2 space rocket.

The launch took place on Dec. 25, 1992, 5:56 a.m. from 45/1.

For more information about the launch, click the button.

Launch to space Zenit-2 | Tselina-2 12
Zenit-2 | Tselina-2 12

Agency: N/A

Status: Launch Successful

Launch date: Dec. 25, 1992, 5:56 a.m. UTC

Rocket: Zenit-2

Launch pad: 45/1

Location: Baikonur Cosmodrome, Republic of Kazakhstan

...

Latest news about this satellite

There are no fresh news available about this satellite. Check back as we update our databases every day.


Newsletter sign-up

Weekly statistics, charts and insights to help you stay on top of the space industry.